TimeAKDT,TemperatureF,Dew PointF,Humidity,Sea Level PressureIn,VisibilityMPH,Wind Direction,Wind SpeedMPH,Gust SpeedMPH,PrecipitationIn,Events,Conditions,WindDirDegrees,DateUTC
12:53 AM,32.0,19.0,59,29.71,10.0,Calm,Calm,-,N/A,,Clear,0,2011-10-12 08:53:00
1:53 AM,32.0,19.0,59,29.73,10.0,Calm,Calm,-,N/A,,Partly Cloudy,0,2011-10-12 09:53:00
2:53 AM,30.9,19.0,61,29.75,10.0,SSE,3.5,-,N/A,,Clear,150,2011-10-12 10:53:00
3:53 AM,28.0,19.0,69,29.76,10.0,Calm,Calm,-,N/A,,Clear,0,2011-10-12 11:53:00
4:53 AM,27.0,19.0,72,29.78,10.0,Calm,Calm,-,N/A,,Clear,0,2011-10-12 12:53:00
5:53 AM,27.0,19.0,72,29.80,10.0,Calm,Calm,-,N/A,,Clear,0,2011-10-12 13:53:00
6:53 AM,25.0,18.0,75,29.82,10.0,Calm,Calm,-,N/A,,Clear,0,2011-10-12 14:53:00
7:53 AM,26.1,18.0,71,29.83,10.0,Calm,Calm,-,N/A,,Clear,0,2011-10-12 15:53:00
8:53 AM,26.1,18.0,71,29.84,10.0,Calm,Calm,-,N/A,,Clear,0,2011-10-12 16:53:00
9:53 AM,28.0,19.0,69,29.86,10.0,East,3.5,-,N/A,,Clear,80,2011-10-12 17:53:00
10:53 AM,33.1,21.0,61,29.88,10.0,Calm,Calm,-,N/A,,Clear,0,2011-10-12 18:53:00
11:53 AM,37.0,19.9,50,29.89,10.0,Calm,Calm,-,N/A,,Clear,0,2011-10-12 19:53:00
12:53 PM,39.0,18.0,43,29.91,10.0,Calm,Calm,-,N/A,,Clear,0,2011-10-12 20:53:00
1:53 PM,41.0,18.0,40,29.92,10.0,South,3.5,-,N/A,,Clear,190,2011-10-12 21:53:00
2:53 PM,42.1,18.0,38,29.93,10.0,Calm,Calm,-,N/A,,Clear,0,2011-10-12 22:53:00
3:53 PM,44.1,19.0,37,29.93,10.0,SSW,5.8,-,N/A,,Clear,210,2011-10-12 23:53:00
4:53 PM,42.1,19.9,41,29.94,10.0,South,5.8,-,N/A,,Clear,190,2011-10-13 00:53:00
5:53 PM,41.0,19.9,43,29.94,10.0,North,-9999.0,-,N/A,,Clear,0,2011-10-13 01:53:00
6:53 PM,37.9,21.0,51,29.95,10.0,North,-9999.0,-,N/A,,Clear,0,2011-10-13 02:53:00
7:53 PM,36.0,21.0,55,29.96,10.0,Calm,Calm,-,N/A,,Clear,0,2011-10-13 03:53:00
8:53 PM,32.0,21.0,64,29.96,10.0,North,-9999.0,-,N/A,,Clear,0,2011-10-13 04:53:00
9:53 PM,30.0,19.0,64,29.97,10.0,ENE,4.6,-,N/A,,Scattered Clouds,60,2011-10-13 05:53:00
10:53 PM,32.0,19.0,59,29.98,10.0,Calm,Calm,-,N/A,,Mostly Cloudy,0,2011-10-13 06:53:00
11:53 PM,32.0,19.0,59,29.99,10.0,Calm,Calm,-,N/A,,Mostly Cloudy,0,2011-10-13 07:53:00